THOR ABLESTAR DEB, 3810

Orbit data source: Space-Track

THOR ABLESTAR DEB, 3810 is space debris in LEO originally from a launch on Fri, 13 Aug 1965 UTC launched from the Air Force Western Test Range (AFWTR). Debris objects in space refer to the collection of defunct objects orbiting the Earth. Examples of debris include non-operational satellites, rocket bodies, and fragments generated from explosions, collisions, or faulty payload assembly.

Loading next visibility...
Identifier
3810, 1965-065P
Orbit
LEO
Last TLE update
16 hours ago
Origin
Manufacturer
Unknown
Mission
Spacecraft
Bus & Motor
Unknown
Mass
Unknown
Launch date (UTC)
1965-08-13 (60 years ago)
Launch vehicle
Unknown
Launch site
Air Force Western Test Range (AFWTR)
Object type
Payload
Rocket body
Debris
Shape & HBR
Unknown
Radar Cross Section
Small (<0.1 m²)

Expand to show TLE details & history

TLE from 16 hours ago
0 THOR ABLESTAR DEB
1 03810U 65065P   25189.60941638  .00000430  00000-0  63716-3 0  9999
2 03810  89.9748 216.4217 0058020 200.8399 281.0922 13.51802206212454
Epoch: 2025-07-08T14:37Z
TLE epoch observation values (Epoch: 2025-07-08T14:37:33.575Z)
Latitude
58.81263°
Longitude
-109.81156°
Altitude
1,067.597 km
Speed
7.328 km/s
True Right ascension
02h 25m 31s
True Declination
58° 39' 59"
Sunlit
Object was in daylight at epoch
Visualization orbit readout
Latitude
41.51976°
Longitude
-109.79404°
Altitude
1,050.147 km
Speed
7.341 km/s
Apparent Right ascension
04h 28m 51s
Apparent Declination
5° 24' 60"
Sunlit
Object is in daylight
Visualization observer readout
Local Sidereal Time
18:51:19
Azimuth
44.416° NE
Elevation
-34.066°
Doppler factor
1
Orbital elements
Apogee altitude
1,105.854 km
Perigee altitude
1,019.511 km
Semi-major axis
7,440.819 km
Eccentricity
0.0058
Inclination
89.9748°
RAAN
216.4217°
Arg. of periapsis
200.8399°
True anomaly
Unknown
Mean anomaly
281.0922°
Eccentric anomaly
Unknown
Mean motion
3.38152 °/min
Orbital period
106.46 mins
BSTAR
0.00063716
Loading maneuver chart data...
Loading SW <> Apogee altitude chart data...
Loading historical data...
Loading historical data...
Loading historical data...
Loading historical data...
Loading historical data...
Loading historical data...
Loading historical data...

THOR ABLESTAR DEB Visibility forecast

Observer location: undefined°, undefined°

Span
Click to sort rows by Start time (UTC) header in descending order
Start Az.
Max El. time (UTC)
Max El. Az.
Max El.
End time (UTC)
End Az.
12 mins2025-07-09 13:42:56.755Z11.727° NNE2025-07-09 13:48:56.755Z95.714° ESE40.006°2025-07-09 13:54:56.755Z166.936° S
8 mins2025-07-09 15:30:56.755Z325.815° NNW2025-07-09 15:34:56.755Z281.416° WNW20.407°2025-07-09 15:38:56.755Z241.168° WSW
11 mins2025-07-10 01:39:56.755Z155.317° SSE2025-07-10 01:44:56.755Z93.611° ESE39.766°2025-07-10 01:50:56.755Z8.405° NNE
9 mins2025-07-10 03:27:56.755Z236.77° WSW2025-07-10 03:31:56.755Z279.492° WNW21.825°2025-07-10 03:36:56.755Z329.288° NNW
|